User: anonymous   Login
Location: Banios
(43.0451°N, 0.2335°E)
Time: 10:54:51
(UTC+00:00)
Language:

Meteor 2-13 Rocket - Orbit

View from above orbital plane
View from above orbital plane
View from above satellite
View from above satellite

Ground track
Ground track

The orbit data is extracted from the following two-line orbital elements,

1 16409U 85119B   21112.70169120  .00000038  00000-0  20456-4 0  9999
2 16409  82.5353 320.5365 0015794  43.3656 316.8744 13.84817075785068
Epoch (UTC): 22 April 2021 16:50:26
Eccentricity: 0.0015794
inclination: 82.5353°
perigee height: 935 km
apogee height: 958 km
right ascension of ascending node: 320.5365°
argument of perigee: 43.3656°
revolutions per day: 13.84817075
mean anomaly at epoch: 316.8744°
orbit number at epoch: 78506

The dashed part of the orbit path shows where the satellite is in the earth's shadow,  

DLR